星链-4535 (STARLINK-4535 )

导读 | 星芒AI

STARLINK-4535 是 SpaceX Starlink 卫星互联网项目中的第 4535 颗卫星。该卫星属于低轨通信卫星群,旨在为全球用户提供高速互联网服务。它运行在近地轨道,配备先进通信设备,支持宽带数据传输。作为 Starlink 计划的一部分,该卫星有助于扩大网络覆盖范围,提升连接稳定性。其发射和运行符合 SpaceX 推动全球数字包容的愿景。

基本信息
目录编号:
53392
目录名称:
STARLINK-4535
国际标识:
2022-097E
轨道中心:
EARTH
卫星名称:
星链-4535
卫星全名:
星链-4535 (STARLINK-4535 )
卫星状态:
在轨 (已飞行1183 天)
发射日期:
2022-08-10 UTC
国别 :
美国 (US)
星等 :
--
轨道信息
数据来源 国际轨道数据
星历时间: 2025-11-05T02:37:48+0800
8小时前
查看轨道信息
半长轴: 6917.843km
偏心率: 0.0001484
轨道倾角: 53.218°
近地点辐角 82.976°
升交点赤经 324.879°
平近点角 277.140°
近地点: 538.681km
远地点: 540.735km
周期: 95.437分钟
每日圈数: 15.088523
详细信息
固有亮度:
5
最大亮度:
2.5
卫星平台:
Starlink v1.5
覆盖范围:
全球
运营商:
太空探索技术公司
运营商所在国:
美国
制造商(研发单位):
太空探索技术公司
制造商所在国:
美国
使用方式:
暂无
卫星简介
星链(Starlink)计划是由太空探索技术公司(SpaceX)提出的一个巨型低轨卫星互联网星座项目,计划在2019年至2024年间在太空搭建由约1.2万颗卫星组成的“星链”网络,其中1584颗将部署在地球上空550千米处的近地轨道,并从2020年开始工作。该卫星仍在工作。
2D轨道图
3D轨道图
轨道高度分析图
轨道倾角分析图
轨道综合分析图
查看轨道综合分析图